CW4427 Weather Reports


Display with metric or nautical units.
time (UTC)temp
F
wind
direction
speed
MPH
gust
MPH
rain 1hr
in
rain 24hr
in
rain mn
in
humidity
%
barometer
mb
20260903033405 82 107 0.0 0.0 0.00 0.00 0.00 73 1015.1
20260903032405 82 107 0.0 0.0 0.00 0.00 0.00 74 1015.2
20260903031905 82 107 0.0 0.0 0.00 0.00 0.00 74 1015.2
20260903031405 82 107 0.0 0.0 0.00 0.00 0.00 72 1015.2
20260903030905 83 107 0.0 0.0 0.00 0.00 0.00 72 1015.5
20260903030404 82 107 0.0 0.0 0.00 0.00 0.00 73 1015.3
20260903025905 83 107 0.0 0.0 0.00 0.00 0.00 72 1015.5
20260903025405 83 107 0.0 0.0 0.00 0.00 0.00 72 1015.4
20260903024405 83 107 0.0 0.0 0.00 0.00 0.00 72 1015.3
20260903023904 83 107 0.0 0.0 0.00 0.00 0.00 73 1015.3
20260903023405 83 107 0.0 0.0 0.00 0.00 0.00 72 1015.1
20260903022905 84 107 0.0 0.0 0.00 0.00 0.00 71 1015.1
20260903022405 84 107 0.0 0.0 0.00 0.00 0.00 70 1015.2
20260903021904 84 107 0.0 0.0 0.00 0.00 0.00 70 1015.0
20260903021405 84 107 0.0 0.0 0.00 0.00 0.00 69 1014.9
20260903020904 84 107 0.0 0.0 0.00 0.00 0.00 69 1015.0
20260903020405 84 107 0.0 0.0 0.00 0.00 0.00 69 1015.0
20260903015905 85 107 0.0 0.0 0.00 0.00 0.00 68 1014.9
20260903015405 85 107 0.0 0.0 0.00 0.00 0.00 68 1014.7
20260903014905 85 107 0.0 0.0 0.00 0.00 0.00 68 1014.6
20260903013905 85 107 0.0 0.0 0.00 0.00 0.00 68 1014.6
20260903013405 85 107 0.0 0.0 0.00 0.00 0.00 66 1014.5
20260903012905 85 107 0.0 0.0 0.00 0.00 0.00 67 1014.6
20260903012405 86 107 0.0 0.0 0.00 0.00 0.00 67 1014.6
20260903011905 86 107 0.0 0.0 0.00 0.00 0.00 67 1014.5
20260903010905 86 107 0.0 0.0 0.00 0.00 0.00 66 1014.5
20260903010404 86 107 0.0 0.0 0.00 0.00 0.00 65 1014.3
20260903005904 87 107 0.0 0.0 0.00 0.00 0.00 65 1014.3
20260903005405 87 107 0.0 0.0 0.00 0.00 0.00 63 1014.2
20260903004904 87 107 0.0 0.0 0.00 0.00 0.00 63 1014.1
20260903004404 88 107 0.0 0.0 0.00 0.00 0.00 62 1014.1
20260903003904 88 107 0.0 0.0 0.00 0.00 0.00 62 1014.2
20260903002905 89 107 0.0 0.0 0.00 0.00 0.00 61 1014.2
20260903002405 89 107 0.0 0.0 0.00 0.00 0.00 60 1014.1
20260903001905 90 107 0.0 0.0 0.00 0.00 0.00 59 1014.2
20260903001405 90 107 0.0 0.0 0.00 0.00 0.00 57 1014.3
20260903000405 92 107 0.0 2.0 0.00 0.00 0.00 55 1014.2
20260902235904 93 107 0.0 3.0 0.00 0.00 0.00 54 1014.2
20260902235405 94 130 0.0 3.0 0.00 0.00 0.00 52 1014.2
20260902234404 95 96 1.0 4.0 0.00 0.00 0.00 50 1014.2
20260902233904 95 72 2.0 4.0 0.00 0.00 0.00 50 1014.4
20260902233404 95 33 3.0 4.0 0.00 0.00 0.00 49 1014.3
20260902232905 95 30 0.0 5.0 0.00 0.00 0.00 50 1014.3
20260902232404 96 90 1.0 5.0 0.00 0.00 0.00 47 1014.2
20260902231904 96 43 1.0 3.0 0.00 0.00 0.00 49 1014.2
20260902231404 97 98 1.0 3.0 0.00 0.00 0.00 48 1014.2
20260902230904 97 55 0.0 0.0 0.00 0.00 0.00 45 1014.3
20260902230404 97 86 0.0 2.0 0.00 0.00 0.00 46 1014.3
20260902225904 97 16 0.0 2.0 0.00 0.00 0.00 46 1014.3
20260902224904 96 48 0.0 0.0 0.00 0.00 0.00 45 1014.4
20260902224404 97 49 0.0 3.0 0.00 0.00 0.00 47 1014.6
20260902223404 97 113 2.0 3.0 0.00 0.00 0.00 47 1014.4
20260902221904 95 59 0.0 0.0 0.00 0.00 0.00 53 1014.5
20260902221404 95 98 0.0 0.0 0.00 0.00 0.00 53 1014.5
20260902220904 94 98 0.0 0.0 0.00 0.00 0.00 56 1014.4
20260902220404 94 98 0.0 0.0 0.00 0.00 0.00 56 1014.5
20260902215904 94 98 0.0 0.0 0.00 0.00 0.00 56 1014.5
20260902215404 93 98 0.0 2.0 0.00 0.00 0.00 53 1014.6
20260902214904 94 98 0.0 2.0 0.00 0.00 0.00 51 1014.5
20260902214404 95 355 0.0 2.0 0.00 0.00 0.00 53 1014.6
20260902213903 95 89 0.0 3.0 0.00 0.00 0.00 55 1014.6
20260902213404 95 355 1.0 3.0 0.00 0.00 0.00 50 1014.8
20260902212903 94 101 1.0 3.0 0.00 0.00 0.00 51 1014.8
20260902211903 95 62 2.0 3.0 0.00 0.00 0.00 53 1014.9
20260902211404 96 49 0.0 3.0 0.00 0.00 0.00 51 1014.8
20260902210404 96 107 2.0 3.0 0.00 0.00 0.00 47 1014.8
20260902205403 97 96 1.0 7.0 0.00 0.00 0.00 45 1014.8
20260902204904 98 5 2.0 5.0 0.00 0.00 0.00 43 1014.9
20260902203903 98 36 3.0 7.0 0.00 0.00 0.00 44 1015.1
20260902203404 98 23 4.0 6.0 0.00 0.00 0.00 45 1015.1
20260902202903 98 30 4.0 5.0 0.00 0.00 0.00 44 1015.2
20260902202403 98 41 2.0 4.0 0.00 0.00 0.00 42 1015.1
20260902201904 97 69 1.0 4.0 0.00 0.00 0.00 43 1015.2
20260902201404 97 86 1.0 5.0 0.00 0.00 0.00 43 1015.3
20260902200904 99 108 4.0 5.0 0.00 0.00 0.00 42 1015.4
20260902200403 99 76 0.0 5.0 0.00 0.00 0.00 43 1015.5
20260902195904 102 85 3.0 5.0 0.00 0.00 0.00 43 1015.6
20260902195403 103 234 0.0 5.0 0.00 0.00 0.00 39 1015.6
20260902194903 102 275 3.0 6.0 0.00 0.00 0.00 42 1015.7
20260902194403 102 197 0.0 6.0 0.00 0.00 0.00 40 1015.8
20260902193904 101 286 2.0 6.0 0.00 0.00 0.00 44 1015.9
20260902193403 101 337 2.0 8.0 0.00 0.00 0.00 42 1016.0
20260902192903 101 144 1.0 8.0 0.00 0.00 0.00 40 1016.0
20260902192403 100 103 7.0 9.0 0.00 0.00 0.00 43 1016.0
20260902190903 101 211 1.0 8.0 0.00 0.00 0.00 42 1016.1
20260902190403 100 281 1.0 8.0 0.00 0.00 0.00 45 1016.1
20260902185903 101 186 0.0 8.0 0.00 0.00 0.00 44 1016.3
20260902184403 98 227 4.0 4.0 0.00 0.00 0.00 48 1016.4
20260902183903 99 348 2.0 6.0 0.00 0.00 0.00 43 1016.5
20260902183403 99 283 3.0 6.0 0.00 0.00 0.00 45 1016.7
20260902182903 98 25 2.0 4.0 0.00 0.00 0.00 46 1016.7
20260902182403 98 286 0.0 4.0 0.00 0.00 0.00 47 1016.9
20260902181903 98 217 1.0 4.0 0.00 0.00 0.00 47 1016.8
20260902181403 97 38 0.0 3.0 0.00 0.00 0.00 49 1016.8
20260902180904 97 282 0.0 5.0 0.00 0.00 0.00 48 1016.8
20260902180403 97 162 0.0 6.0 0.00 0.00 0.00 46 1016.9
20260902175903 98 226 0.0 7.0 0.00 0.00 0.00 45 1017.0
20260902175403 99 130 2.0 7.0 0.00 0.00 0.00 45 1017.2
20260902174403 100 236 2.0 8.0 0.00 0.00 0.00 46 1017.4
20260902173903 100 203 2.0 8.0 0.00 0.00 0.00 44 1017.3
20260902173403 99 145 1.0 7.0 0.00 0.00 0.00 47 1017.3
20260902172903 99 203 3.0 5.0 0.00 0.00 0.00 46 1017.4
20260902172403 97 13 0.0 7.0 0.00 0.00 0.00 50 1017.4
20260902171903 97 50 0.0 7.0 0.00 0.00 0.00 50 1017.6
20260902171403 97 96 4.0 8.0 0.00 0.00 0.00 50 1017.6
20260902170903 98 201 5.0 8.0 0.00 0.00 0.00 47 1017.7
20260902170403 99 38 2.0 4.0 0.00 0.00 0.00 46 1017.8
20260902165403 97 274 0.0 6.0 0.00 0.00 0.00 49 1017.9
20260902164903 97 292 4.0 7.0 0.00 0.00 0.00 49 1017.9
20260902164403 97 313 0.0 7.0 0.00 0.00 0.00 49 1018.0
20260902163903 97 121 4.0 7.0 0.00 0.00 0.00 49 1018.2
20260902163403 98 323 0.0 7.0 0.00 0.00 0.00 50 1018.3
20260902162903 96 140 3.0 7.0 0.00 0.00 0.00 52 1018.2
20260902161903 98 246 3.0 5.0 0.00 0.00 0.00 52 1018.3
20260902161403 97 129 1.0 5.0 0.00 0.00 0.00 51 1018.3
20260902160903 96 281 4.0 4.0 0.00 0.00 0.00 55 1018.5
20260902160403 96 303 2.0 3.0 0.00 0.00 0.00 57 1018.2
20260902155903 97 310 0.0 3.0 0.00 0.00 0.00 56 1018.5
20260902155403 96 250 0.0 3.0 0.00 0.00 0.00 55 1018.5
20260902154903 95 213 0.0 4.0 0.00 0.00 0.00 59 1018.5
20260902154403 94 283 0.0 6.0 0.00 0.00 0.00 56 1018.5
20260902153403 93 34 0.0 5.0 0.00 0.00 0.00 56 1018.5
20260902152903 94 44 3.0 5.0 0.00 0.00 0.00 55 1018.5
20260902152403 93 49 1.0 4.0 0.00 0.00 0.00 60 1018.6
20260902151903 94 137 0.0 4.0 0.00 0.00 0.00 56 1018.5
20260902151403 94 264 2.0 4.0 0.00 0.00 0.00 61 1018.5
20260902150403 94 284 2.0 4.0 0.00 0.00 0.00 59 1018.6
20260902145403 93 282 0.0 3.0 0.00 0.00 0.00 60 1018.5
20260902144403 92 107 1.0 3.0 0.00 0.00 0.00 61 1018.5
20260902143903 92 200 2.0 3.0 0.00 0.00 0.00 60 1018.5
20260902143403 92 280 0.0 3.0 0.00 0.00 0.00 64 1018.5
20260902142903 92 271 0.0 3.0 0.00 0.00 0.00 60 1018.5
20260902142403 91 18 1.0 3.0 0.00 0.00 0.00 63 1018.4
20260902141903 91 284 0.0 3.0 0.00 0.00 0.00 62 1018.5
20260902141403 90 284 1.0 3.0 0.00 0.00 0.00 62 1018.5
20260902140903 90 300 0.0 4.0 0.00 0.00 0.00 63 1018.6
20260902140403 90 281 0.0 4.0 0.00 0.00 0.00 64 1018.6
20260902135903 89 202 1.0 4.0 0.00 0.00 0.00 67 1018.7
20260902135403 89 248 0.0 2.0 0.00 0.00 0.00 67 1018.7
20260902134902 89 261 0.0 3.0 0.00 0.00 0.00 67 1018.7
20260902134402 88 286 0.0 3.0 0.00 0.00 0.00 67 1018.7
20260902133903 87 205 2.0 2.0 0.00 0.00 0.00 70 1018.6
20260902133403 85 148 0.0 0.0 0.00 0.00 0.00 74 1018.6
20260902132902 85 148 0.0 0.0 0.00 0.00 0.00 75 1018.6
20260902132402 83 148 0.0 0.0 0.00 0.00 0.00 76 1018.4
20260902131403 82 148 0.0 0.0 0.00 0.00 0.00 78 1018.4
20260902130402 81 148 0.0 0.0 0.00 0.00 0.00 80 1018.3
20260902125902 80 148 0.0 0.0 0.00 0.00 0.00 80 1018.2
20260902125402 80 148 0.0 0.0 0.00 0.00 0.00 81 1018.3
20260902124402 79 148 0.0 0.0 0.00 0.00 0.00 83 1018.1
20260902123902 78 148 0.0 0.0 0.00 0.00 0.00 84 1018.1
20260902123402 77 148 0.0 0.0 0.00 0.00 0.00 85 1018.0
20260902122903 76 148 0.0 0.0 0.00 0.00 0.00 86 1018.0
20260902122402 76 148 0.0 0.0 0.00 0.00 0.00 86 1017.9
20260902121903 76 148 0.0 0.0 0.00 0.00 0.00 86 1017.9
20260902121402 76 148 0.0 0.0 0.00 0.00 0.00 86 1017.7
20260902120902 75 148 0.0 0.0 0.00 0.00 0.00 86 1017.8
20260902120402 75 148 0.0 0.0 0.00 0.00 0.00 86 1017.7
20260902115902 75 148 0.0 0.0 0.00 0.00 0.00 86 1017.6
20260902115403 75 148 0.0 0.0 0.00 0.00 0.00 86 1017.5
20260902114902 75 148 0.0 0.0 0.00 0.00 0.00 87 1017.4
20260902114403 75 148 0.0 0.0 0.00 0.00 0.00 87 1017.4
20260902113902 75 148 0.0 0.0 0.00 0.00 0.00 87 1017.4
20260902113402 75 148 0.0 0.0 0.00 0.00 0.00 87 1017.5
20260902112402 75 148 0.0 0.0 0.00 0.00 0.00 87 1017.5
20260902111902 75 148 0.0 0.0 0.00 0.00 0.00 87 1017.4
20260902111402 75 148 0.0 0.0 0.00 0.00 0.00 86 1017.4
20260902110902 75 148 0.0 0.0 0.00 0.00 0.00 86 1017.2
20260902110402 75 148 0.0 0.0 0.00 0.00 0.00 86 1017.1
20260902105902 75 148 0.0 0.0 0.00 0.00 0.00 86 1017.0
20260902104902 76 148 0.0 0.0 0.00 0.00 0.00 85 1017.1
20260902104402 76 148 0.0 0.0 0.00 0.00 0.00 86 1017.2
20260902103402 75 148 0.0 0.0 0.00 0.00 0.00 86 1017.1
20260902102402 76 148 0.0 0.0 0.00 0.00 0.00 86 1017.1
20260902100902 76 148 0.0 0.0 0.00 0.00 0.00 85 1017.0
20260902100402 76 148 0.0 0.0 0.00 0.00 0.00 85 1016.9
20260902095902 76 148 0.0 0.0 0.00 0.00 0.00 84 1016.9
20260902095402 76 148 0.0 0.0 0.00 0.00 0.00 84 1016.7
20260902094902 77 148 0.0 0.0 0.00 0.00 0.00 84 1016.8
20260902093902 76 148 0.0 0.0 0.00 0.00 0.00 84 1016.7
20260902093402 76 148 0.0 0.0 0.00 0.00 0.00 84 1016.7
20260902092902 76 148 0.0 0.0 0.00 0.00 0.00 84 1016.7
20260902092402 77 148 0.0 0.0 0.00 0.00 0.00 83 1016.9
20260902091902 77 148 0.0 0.0 0.00 0.00 0.00 82 1016.8
20260902090902 77 148 0.0 0.0 0.00 0.00 0.00 82 1016.7
20260902090402 77 148 0.0 0.0 0.00 0.00 0.00 82 1016.8
20260902085902 77 148 0.0 0.0 0.00 0.00 0.00 82 1016.8
20260902084902 78 148 0.0 0.0 0.00 0.00 0.00 81 1016.7
20260902084402 78 148 0.0 0.0 0.00 0.00 0.00 81 1016.7
20260902083902 78 148 0.0 0.0 0.00 0.00 0.00 81 1016.7
20260902083402 78 148 0.0 0.0 0.00 0.00 0.00 81 1016.6
20260902082902 78 148 0.0 0.0 0.00 0.00 0.00 81 1016.6
20260902082401 78 148 0.0 0.0 0.00 0.00 0.00 81 1016.6
20260902081902 78 148 0.0 0.0 0.00 0.00 0.00 81 1016.6
20260902081402 78 148 0.0 0.0 0.00 0.00 0.00 82 1016.6
20260902080902 77 148 0.0 0.0 0.00 0.00 0.00 82 1016.7
20260902080402 78 148 0.0 0.0 0.00 0.00 0.00 82 1016.7
20260902075902 78 148 0.0 0.0 0.00 0.00 0.00 82 1016.7
20260902075402 78 148 0.0 0.0 0.00 0.00 0.00 81 1016.7
20260902074401 78 148 0.0 0.0 0.00 0.00 0.00 81 1016.6
20260902073901 78 148 0.0 0.0 0.00 0.00 0.00 80 1016.8
20260902072402 79 148 0.0 0.0 0.00 0.00 0.00 79 1016.8
20260902071402 79 148 0.0 0.0 0.00 0.00 0.00 79 1016.7
20260902070901 79 148 0.0 0.0 0.00 0.00 0.00 78 1016.7
20260902070401 79 148 0.0 0.0 0.00 0.00 0.00 78 1016.7
20260902065901 79 148 0.0 0.0 0.00 0.00 0.00 78 1016.6
20260902065402 80 148 0.0 0.0 0.00 0.00 0.00 77 1016.7
20260902064902 79 148 0.0 0.0 0.00 0.00 0.00 78 1016.9
20260902063901 79 148 0.0 0.0 0.00 0.00 0.00 79 1016.9
20260902063401 79 95 0.0 0.0 0.00 0.00 0.00 78 1016.8
20260902062902 80 95 0.0 0.0 0.00 0.00 0.00 78 1016.9
20260902062402 79 95 0.0 0.0 0.00 0.00 0.00 79 1016.8
20260902061901 79 95 0.0 0.0 0.00 0.00 0.00 79 1016.8
20260902060902 79 95 0.0 0.0 0.00 0.00 0.00 78 1016.9
20260902055901 79 95 0.0 0.0 0.00 0.00 0.00 79 1016.9
20260902055402 79 95 0.0 0.0 0.00 0.00 0.00 79 1017.0
20260902054901 79 95 0.0 0.0 0.00 0.00 0.00 79 1016.9
20260902054401 79 95 0.0 0.0 0.00 0.00 0.00 79 1016.9
20260902053901 79 95 0.0 0.0 0.00 0.00 0.00 79 1016.8
20260902053401 79 95 0.0 0.0 0.00 0.00 0.00 79 1016.6
20260902052902 79 95 0.0 0.0 0.00 0.00 0.00 79 1016.6
20260902052402 80 95 0.0 0.0 0.00 0.00 0.00 79 1016.7
20260902051901 80 95 0.0 0.0 0.00 0.00 0.00 78 1016.6
20260902051401 80 95 0.0 0.0 0.00 0.00 0.00 78 1016.8
20260902045902 80 95 0.0 0.0 0.00 0.00 0.00 78 1016.5
20260902044902 80 95 0.0 0.0 0.00 0.00 0.00 78 1016.5
20260902043901 80 95 0.0 0.0 0.00 0.00 0.00 78 1016.4
20260902043401 80 95 0.0 0.0 0.00 0.00 0.00 78 1016.4
20260902040901 80 95 0.0 0.0 0.00 0.00 0.00 78 1016.3
20260902040401 80 95 0.0 0.0 0.00 0.00 0.00 77 1016.5
20260902035901 80 95 0.0 0.0 0.00 0.00 0.00 77 1016.4
20260902034901 81 95 0.0 0.0 0.00 0.00 0.00 75 1016.5
20260902034401 81 95 0.0 0.0 0.00 0.00 0.00 76 1016.4
20260902033901 81 95 0.0 0.0 0.00 0.00 0.00 76 1016.4